Overview Statistics Trail Chart Weather Telemetry Raw packets
 

This is the latest recevied weather packets stored in our database for station/object M0JUI-1. If no packets are shown the sender has not sent any weather packets the latest 10 day(s).

<< 39 40 41 42 43 44 45 >>
Time Temp. Humidity Pressure Rain* Wind** Luminosity Snow
1788369333 17.78° C 17% 1013.4 hPa 0.25 mm - 56 W/m² -
1788369033 17.78° C 17% 1013.4 hPa 0.25 mm - 65 W/m² -
1788368733 17.78° C 17% 1013.3 hPa 0.51 mm - 54 W/m² -
1788368421 17.78° C 17% 1013.5 hPa 0.51 mm - 55 W/m² -
1788368121 17.78° C 16% 1013.3 hPa 0.51 mm - 40 W/m² -
1788367822 17.78° C 16% 1013.2 hPa 0.51 mm - 39 W/m² -
1788367509 17.78° C 16% 1013.6 hPa 0.51 mm - 63 W/m² -
1788367209 17.78° C 15% 1013.5 hPa 0.51 mm - 72 W/m² -
1788366910 17.22° C 15% 1013.7 hPa 0.51 mm - 79 W/m² -
1788366597 17.22° C 14% 1013.8 hPa 0.51 mm - 65 W/m² -
1788366297 17.22° C 14% 1013.6 hPa 0.51 mm - 23 W/m² -
1788365997 17.22° C 13% 1013.7 hPa 0.25 mm - 46 W/m² -
1788365697 17.22° C 13% 1013.5 hPa 0.25 mm - 51 W/m² -
1788365397 17.22° C 12% 1013.4 hPa 0.25 mm - 42 W/m² -
1788365097 17.22° C 12% 1013.5 hPa 0 mm - 55 W/m² -
1788364797 17.22° C 12% 1013.5 hPa 0 mm - 42 W/m² -
1788364497 17.22° C 11% 1013.6 hPa 0 mm - 60 W/m² -
1788364197 17.22° C 11% 1013.5 hPa 0 mm - 50 W/m² -
1788363897 17.22° C 11% 1013.8 hPa 0 mm - 35 W/m² -
1788363597 17.22° C 11% 1013.8 hPa 0 mm - 35 W/m² -
1788363297 17.22° C 11% 1013.8 hPa 0 mm - 36 W/m² -
1788362997 17.22° C 11% 1013.9 hPa 0 mm - 49 W/m² -
1788362697 17.22° C 12% 1013.9 hPa 0 mm - 105 W/m² -
1788362397 16.67° C 12% 1013.9 hPa 0 mm - 76 W/m² -
1788362085 16.67° C 13% 1013.7 hPa 0 mm - 59 W/m² -

* Rain latest hour (hover to see other rain measurements)
** Current wind speed in m/s (hover to see current wind gust speed)